Time,TemperatureF,DewpointF,PressureIn,WindDirection,WindDirectionDegrees,WindSpeedMPH,WindSpeedGustMPH,Humidity,HourlyPrecipIn,Conditions,Clouds,dailyrainin,SoftwareType,DateUTC
2013-09-28 00:01:00,59.0,53.0,30.33,North,360,6.8,7.0,80,0.00,,,0.00,Rainwise IP-100,2013-09-28 04:01:00,
2013-09-28 00:06:00,59.0,53.0,30.33,NNE,22,4.7,7.0,80,0.00,,,0.00,Rainwise IP-100,2013-09-28 04:06:00,
2013-09-28 00:11:00,59.0,53.0,30.32,NNE,22,4.4,7.0,80,0.00,,,0.00,Rainwise IP-100,2013-09-28 04:11:00,
2013-09-28 00:16:00,59.0,53.0,30.32,NNE,22,4.0,7.0,80,0.00,,,0.00,Rainwise IP-100,2013-09-28 04:16:00,
2013-09-28 00:21:00,59.1,53.0,30.33,North,360,6.1,7.0,80,0.00,,,0.00,Rainwise IP-100,2013-09-28 04:21:00,
2013-09-28 00:26:00,59.1,53.0,30.33,North,360,1.6,7.0,80,0.00,,,0.00,Rainwise IP-100,2013-09-28 04:26:00,
2013-09-28 00:32:00,59.1,53.0,30.32,NNE,22,3.5,6.0,80,0.00,,,0.00,Rainwise IP-100,2013-09-28 04:32:00,
2013-09-28 00:37:00,59.1,53.0,30.33,NNE,22,3.5,7.0,79,0.00,,,0.00,Rainwise IP-100,2013-09-28 04:37:00,
2013-09-28 00:42:00,59.1,53.0,30.33,North,360,2.8,7.0,80,0.00,,,0.00,Rainwise IP-100,2013-09-28 04:42:00,
2013-09-28 00:47:00,59.0,53.0,30.32,North,360,3.3,6.0,79,0.00,,,0.00,Rainwise IP-100,2013-09-28 04:47:00,
2013-09-28 00:52:00,59.0,53.0,30.32,North,360,4.4,5.0,79,0.00,,,0.00,Rainwise IP-100,2013-09-28 04:52:00,
2013-09-28 00:57:00,58.9,53.0,30.32,NNE,22,3.5,5.0,80,0.00,,,0.00,Rainwise IP-100,2013-09-28 04:57:00,
2013-09-28 01:02:00,58.7,53.0,30.32,North,360,4.0,5.0,80,0.00,,,0.00,Rainwise IP-100,2013-09-28 05:02:00,
2013-09-28 01:07:00,58.5,53.0,30.33,North,360,4.9,5.0,80,0.00,,,0.00,Rainwise IP-100,2013-09-28 05:07:00,
2013-09-28 01:12:00,58.3,52.0,30.32,NNE,22,4.4,6.0,80,0.00,,,0.00,Rainwise IP-100,2013-09-28 05:12:00,
2013-09-28 01:18:00,58.2,53.0,30.32,North,360,4.4,6.0,81,0.00,,,0.00,Rainwise IP-100,2013-09-28 05:18:00,
2013-09-28 01:23:00,58.1,53.0,30.32,NNW,337,3.5,6.0,81,0.00,,,0.00,Rainwise IP-100,2013-09-28 05:23:00,
2013-09-28 01:28:00,57.9,53.0,30.32,NNW,337,4.7,5.0,82,0.00,,,0.00,Rainwise IP-100,2013-09-28 05:28:00,
2013-09-28 01:33:00,57.8,52.0,30.32,North,360,3.5,6.0,82,0.00,,,0.00,Rainwise IP-100,2013-09-28 05:33:00,
2013-09-28 01:38:00,57.7,52.0,30.33,North,360,2.6,6.0,82,0.00,,,0.00,Rainwise IP-100,2013-09-28 05:38:00,
2013-09-28 01:43:00,57.4,53.0,30.33,North,360,3.5,6.0,83,0.00,,,0.00,Rainwise IP-100,2013-09-28 05:43:00,
2013-09-28 01:48:00,57.2,52.0,30.33,NNW,337,4.0,5.0,83,0.00,,,0.00,Rainwise IP-100,2013-09-28 05:48:00,
2013-09-28 01:53:00,57.2,52.0,30.32,NNW,337,3.7,5.0,83,0.00,,,0.00,Rainwise IP-100,2013-09-28 05:53:00,
2013-09-28 01:59:00,57.1,52.0,30.32,NNW,337,1.9,5.0,84,0.00,,,0.00,Rainwise IP-100,2013-09-28 05:59:00,
2013-09-28 02:04:00,57.0,52.0,30.32,NNW,337,4.7,5.0,84,0.00,,,0.00,Rainwise IP-100,2013-09-28 06:04:00,
2013-09-28 02:09:00,56.9,52.0,30.32,North,360,3.7,6.0,84,0.00,,,0.00,Rainwise IP-100,2013-09-28 06:09:00,
2013-09-28 02:14:00,57.0,52.0,30.32,NNW,337,4.4,5.0,84,0.00,,,0.00,Rainwise IP-100,2013-09-28 06:14:00,
2013-09-28 02:19:00,57.0,53.0,30.32,NNW,337,4.2,5.0,85,0.00,,,0.00,Rainwise IP-100,2013-09-28 06:19:00,
2013-09-28 02:24:00,56.8,53.0,30.32,NNW,337,3.7,5.0,86,0.00,,,0.00,Rainwise IP-100,2013-09-28 06:24:00,
2013-09-28 02:29:00,56.5,53.0,30.32,NNW,337,4.9,4.9,86,0.00,,,0.00,Rainwise IP-100,2013-09-28 06:29:00,
2013-09-28 02:35:00,56.3,52.0,30.32,NNW,337,3.0,5.0,87,0.00,,,0.00,Rainwise IP-100,2013-09-28 06:35:00,
2013-09-28 02:40:00,56.2,52.0,30.32,NW,315,2.8,5.0,87,0.00,,,0.00,Rainwise IP-100,2013-09-28 06:40:00,
2013-09-28 02:45:00,56.0,53.0,30.32,NNW,337,4.0,5.0,88,0.00,,,0.00,Rainwise IP-100,2013-09-28 06:45:00,
2013-09-28 02:50:00,55.8,53.0,30.32,NNW,337,3.3,4.0,89,0.00,,,0.00,Rainwise IP-100,2013-09-28 06:50:00,
2013-09-28 02:55:00,55.6,53.0,30.32,North,360,5.4,6.0,89,0.00,,,0.00,Rainwise IP-100,2013-09-28 06:55:00,
2013-09-28 03:00:00,55.5,53.0,30.32,NNW,337,2.8,7.0,89,0.00,,,0.00,Rainwise IP-100,2013-09-28 07:00:00,
2013-09-28 03:05:00,55.5,53.0,30.32,NNW,337,4.4,6.0,89,0.00,,,0.00,Rainwise IP-100,2013-09-28 07:05:00,
2013-09-28 03:10:00,55.5,53.0,30.32,NNW,337,4.0,7.0,88,0.00,,,0.00,Rainwise IP-100,2013-09-28 07:10:00,
2013-09-28 03:16:00,55.7,52.0,30.32,NNW,337,4.0,7.0,87,0.00,,,0.00,Rainwise IP-100,2013-09-28 07:16:00,
2013-09-28 03:21:00,55.9,52.0,30.32,NNW,337,3.5,7.0,87,0.00,,,0.00,Rainwise IP-100,2013-09-28 07:21:00,
2013-09-28 03:26:00,55.9,52.0,30.32,NNW,337,2.6,7.0,86,0.00,,,0.00,Rainwise IP-100,2013-09-28 07:26:00,
2013-09-28 03:31:00,56.0,52.0,30.32,North,360,3.0,6.0,86,0.00,,,0.00,Rainwise IP-100,2013-09-28 07:31:00,
2013-09-28 03:36:00,56.0,52.0,30.32,NNW,337,4.2,7.0,86,0.00,,,0.00,Rainwise IP-100,2013-09-28 07:36:00,
2013-09-28 03:41:00,56.0,52.0,30.32,NNW,337,2.8,5.0,86,0.00,,,0.00,Rainwise IP-100,2013-09-28 07:41:00,
2013-09-28 03:46:00,56.0,52.0,30.32,NW,315,5.8,6.0,86,0.00,,,0.00,Rainwise IP-100,2013-09-28 07:46:00,
2013-09-28 03:52:00,55.9,52.0,30.32,NW,315,4.0,6.0,87,0.00,,,0.00,Rainwise IP-100,2013-09-28 07:52:00,
2013-09-28 03:57:00,55.7,53.0,30.32,NNW,337,5.1,6.0,88,0.00,,,0.00,Rainwise IP-100,2013-09-28 07:57:00,
2013-09-28 04:02:00,55.4,52.0,30.32,NNW,337,3.7,5.0,88,0.00,,,0.00,Rainwise IP-100,2013-09-28 08:02:00,
2013-09-28 04:07:00,55.4,52.0,30.32,NNW,337,4.0,5.0,88,0.00,,,0.00,Rainwise IP-100,2013-09-28 08:07:00,
2013-09-28 04:12:00,55.3,52.0,30.32,North,360,2.6,5.0,88,0.00,,,0.00,Rainwise IP-100,2013-09-28 08:12:00,
2013-09-28 04:17:00,55.1,52.0,30.32,NNW,337,3.0,4.0,89,0.00,,,0.00,Rainwise IP-100,2013-09-28 08:17:00,
2013-09-28 04:22:00,54.9,52.0,30.33,North,360,2.8,5.0,89,0.00,,,0.00,Rainwise IP-100,2013-09-28 08:22:00,
2013-09-28 04:27:00,54.7,51.0,30.33,North,360,4.0,5.0,89,0.00,,,0.00,Rainwise IP-100,2013-09-28 08:27:00,
2013-09-28 04:33:00,54.6,51.0,30.33,North,360,4.7,6.0,89,0.00,,,0.00,Rainwise IP-100,2013-09-28 08:33:00,
2013-09-28 04:38:00,54.6,51.0,30.33,North,360,4.0,6.0,89,0.00,,,0.00,Rainwise IP-100,2013-09-28 08:38:00,
2013-09-28 04:43:00,54.6,51.0,30.33,NNW,337,3.3,4.0,89,0.00,,,0.00,Rainwise IP-100,2013-09-28 08:43:00,
2013-09-28 04:48:00,54.5,51.0,30.33,NNW,337,4.2,5.0,89,0.00,,,0.00,Rainwise IP-100,2013-09-28 08:48:00,
2013-09-28 04:53:00,54.4,52.0,30.33,NNW,337,2.8,5.0,90,0.00,,,0.00,Rainwise IP-100,2013-09-28 08:53:00,
2013-09-28 04:58:00,54.3,51.0,30.33,NNW,337,1.9,5.0,91,0.00,,,0.00,Rainwise IP-100,2013-09-28 08:58:00,
2013-09-28 05:03:00,54.2,51.0,30.33,NNW,337,4.9,4.9,91,0.00,,,0.00,Rainwise IP-100,2013-09-28 09:03:00,
2013-09-28 05:09:00,54.3,51.0,30.33,NNW,337,3.0,6.0,91,0.00,,,0.00,Rainwise IP-100,2013-09-28 09:09:00,
2013-09-28 05:14:00,54.3,51.0,30.33,NNW,337,3.3,5.0,91,0.00,,,0.00,Rainwise IP-100,2013-09-28 09:14:00,
2013-09-28 05:19:00,54.4,52.0,30.34,NNW,337,3.3,4.0,91,0.00,,,0.00,Rainwise IP-100,2013-09-28 09:19:00,
2013-09-28 05:24:00,54.3,51.0,30.34,NW,315,4.7,5.0,91,0.00,,,0.00,Rainwise IP-100,2013-09-28 09:24:00,
2013-09-28 05:29:00,54.4,52.0,30.33,NW,315,5.6,7.0,91,0.00,,,0.00,Rainwise IP-100,2013-09-28 09:29:00,
2013-09-28 05:34:00,54.5,52.0,30.34,NNW,337,5.4,6.0,90,0.00,,,0.00,Rainwise IP-100,2013-09-28 09:34:00,
2013-09-28 05:39:00,54.6,52.0,30.34,NW,315,6.3,6.3,90,0.00,,,0.00,Rainwise IP-100,2013-09-28 09:39:00,
2013-09-28 05:44:00,54.6,52.0,30.34,NNW,337,4.4,6.0,90,0.00,,,0.00,Rainwise IP-100,2013-09-28 09:44:00,
2013-09-28 05:50:00,54.6,52.0,30.34,WNW,292,3.5,5.0,90,0.00,,,0.00,Rainwise IP-100,2013-09-28 09:50:00,
2013-09-28 05:55:00,54.5,52.0,30.34,NW,315,5.4,7.0,90,0.00,,,0.00,Rainwise IP-100,2013-09-28 09:55:00,
2013-09-28 06:00:00,54.5,52.0,30.34,NW,315,6.5,7.0,90,0.00,,,0.00,Rainwise IP-100,2013-09-28 10:00:00,
2013-09-28 06:05:00,54.4,52.0,30.34,NW,315,5.8,6.0,90,0.00,,,0.00,Rainwise IP-100,2013-09-28 10:05:00,
2013-09-28 06:10:00,54.1,51.0,30.34,NW,315,6.3,7.0,90,0.00,,,0.00,Rainwise IP-100,2013-09-28 10:10:00,
2013-09-28 06:15:00,54.0,51.0,30.34,NW,315,7.0,7.0,90,0.00,,,0.00,Rainwise IP-100,2013-09-28 10:15:00,
2013-09-28 06:20:00,53.9,51.0,30.34,NW,315,6.3,7.0,91,0.00,,,0.00,Rainwise IP-100,2013-09-28 10:20:00,
2013-09-28 06:26:00,53.8,50.0,30.34,NW,315,6.3,7.0,91,0.00,,,0.00,Rainwise IP-100,2013-09-28 10:26:00,
2013-09-28 06:31:00,53.8,50.0,30.34,NW,315,7.0,7.0,91,0.00,,,0.00,Rainwise IP-100,2013-09-28 10:31:00,
2013-09-28 06:36:00,53.7,50.0,30.35,NW,315,5.8,8.0,91,0.00,,,0.00,Rainwise IP-100,2013-09-28 10:36:00,
2013-09-28 06:41:00,53.7,50.0,30.35,NW,315,6.5,8.0,91,0.00,,,0.00,Rainwise IP-100,2013-09-28 10:41:00,
2013-09-28 06:46:00,53.7,50.0,30.34,NW,315,7.0,8.0,91,0.00,,,0.00,Rainwise IP-100,2013-09-28 10:46:00,
2013-09-28 06:51:00,53.6,50.0,30.35,NNW,337,6.5,8.0,91,0.00,,,0.00,Rainwise IP-100,2013-09-28 10:51:00,
2013-09-28 06:56:00,53.6,50.0,30.35,NW,315,6.5,8.0,91,0.00,,,0.00,Rainwise IP-100,2013-09-28 10:56:00,
2013-09-28 07:01:00,53.5,50.0,30.35,NNW,337,5.8,8.0,91,0.00,,,0.00,Rainwise IP-100,2013-09-28 11:01:00,
2013-09-28 07:07:00,53.5,50.0,30.35,NW,315,5.8,7.0,91,0.00,,,0.00,Rainwise IP-100,2013-09-28 11:07:00,
2013-09-28 07:12:00,53.5,50.0,30.36,NNW,337,6.1,7.0,91,0.00,,,0.00,Rainwise IP-100,2013-09-28 11:12:00,
2013-09-28 07:17:00,53.6,50.0,30.36,NNW,337,6.1,7.0,91,0.00,,,0.00,Rainwise IP-100,2013-09-28 11:17:00,
2013-09-28 07:22:00,53.7,50.0,30.36,NNW,337,7.2,7.2,91,0.00,,,0.00,Rainwise IP-100,2013-09-28 11:22:00,
2013-09-28 07:27:00,53.9,51.0,30.36,NW,315,7.5,7.5,91,0.00,,,0.00,Rainwise IP-100,2013-09-28 11:27:00,
2013-09-28 07:32:00,54.2,51.0,30.36,NW,315,7.2,8.0,91,0.00,,,0.00,Rainwise IP-100,2013-09-28 11:32:00,
2013-09-28 07:37:00,54.3,51.0,30.36,NW,315,8.2,9.0,90,0.00,,,0.00,Rainwise IP-100,2013-09-28 11:37:00,
2013-09-28 07:43:00,54.5,52.0,30.36,NW,315,6.8,9.0,90,0.00,,,0.00,Rainwise IP-100,2013-09-28 11:43:00,
2013-09-28 07:48:00,54.9,52.0,30.36,NW,315,4.7,8.0,89,0.00,,,0.00,Rainwise IP-100,2013-09-28 11:48:00,
2013-09-28 07:51:00,55.2,52.0,30.36,NW,315,7.5,8.0,89,0.00,,,0.00,Rainwise IP-100,2013-09-28 11:51:00,
2013-09-28 07:56:00,55.7,53.0,30.36,NW,315,6.3,9.0,88,0.00,,,0.00,Rainwise IP-100,2013-09-28 11:56:00,
2013-09-28 08:01:00,56.2,53.0,30.36,NW,315,7.5,9.0,88,0.00,,,0.00,Rainwise IP-100,2013-09-28 12:01:00,
2013-09-28 08:07:00,56.6,53.0,30.36,NNW,337,6.5,9.0,87,0.00,,,0.00,Rainwise IP-100,2013-09-28 12:07:00,
2013-09-28 08:12:00,57.0,53.0,30.36,NNW,337,5.6,8.0,86,0.00,,,0.00,Rainwise IP-100,2013-09-28 12:12:00,
2013-09-28 08:17:00,57.8,53.0,30.36,NNW,337,7.7,11.0,85,0.00,,,0.00,Rainwise IP-100,2013-09-28 12:17:00,
2013-09-28 08:22:00,58.6,53.0,30.36,North,360,7.9,11.0,82,0.00,,,0.00,Rainwise IP-100,2013-09-28 12:22:00,
2013-09-28 08:27:00,59.3,53.0,30.36,NNW,337,6.5,11.0,80,0.00,,,0.00,Rainwise IP-100,2013-09-28 12:27:00,
2013-09-28 08:32:00,59.8,53.0,30.37,NNW,337,7.5,12.0,79,0.00,,,0.00,Rainwise IP-100,2013-09-28 12:32:00,
2013-09-28 08:37:00,60.0,53.0,30.36,North,360,5.1,9.0,78,0.00,,,0.00,Rainwise IP-100,2013-09-28 12:37:00,
2013-09-28 08:42:00,60.2,53.0,30.37,NNW,337,9.1,10.0,77,0.00,,,0.00,Rainwise IP-100,2013-09-28 12:42:00,
2013-09-28 08:48:00,60.5,53.0,30.37,NNW,337,7.7,10.0,77,0.00,,,0.00,Rainwise IP-100,2013-09-28 12:48:00,
2013-09-28 08:53:00,60.9,53.0,30.37,NNE,22,6.8,9.0,76,0.00,,,0.00,Rainwise IP-100,2013-09-28 12:53:00,
2013-09-28 08:58:00,61.7,53.0,30.37,NNW,337,3.7,9.0,75,0.00,,,0.00,Rainwise IP-100,2013-09-28 12:58:00,
2013-09-28 09:03:00,62.1,53.0,30.37,NNW,337,7.2,11.0,74,0.00,,,0.00,Rainwise IP-100,2013-09-28 13:03:00,
2013-09-28 09:08:00,62.1,53.0,30.38,NNW,337,6.8,9.0,73,0.00,,,0.00,Rainwise IP-100,2013-09-28 13:08:00,
2013-09-28 09:13:00,62.8,53.0,30.37,NNW,337,6.1,9.0,72,0.00,,,0.00,Rainwise IP-100,2013-09-28 13:13:00,
2013-09-28 09:18:00,63.4,54.0,30.38,NNW,337,8.4,10.0,71,0.00,,,0.00,Rainwise IP-100,2013-09-28 13:18:00,
2013-09-28 09:24:00,63.7,53.0,30.37,NNW,337,10.0,11.0,70,0.00,,,0.00,Rainwise IP-100,2013-09-28 13:24:00,
2013-09-28 09:29:00,63.8,53.0,30.38,NNW,337,3.5,13.0,69,0.00,,,0.00,Rainwise IP-100,2013-09-28 13:29:00,
2013-09-28 09:34:00,63.9,53.0,30.37,North,360,9.1,13.0,69,0.00,,,0.00,Rainwise IP-100,2013-09-28 13:34:00,
2013-09-28 09:39:00,64.1,53.0,30.38,North,360,9.3,11.0,69,0.00,,,0.00,Rainwise IP-100,2013-09-28 13:39:00,
2013-09-28 09:44:00,64.3,53.0,30.38,NNE,22,10.7,11.0,68,0.00,,,0.00,Rainwise IP-100,2013-09-28 13:44:00,
2013-09-28 09:49:00,64.4,53.0,30.38,ENE,67,4.9,11.0,68,0.00,,,0.00,Rainwise IP-100,2013-09-28 13:49:00,
2013-09-28 09:54:00,64.5,53.0,30.38,North,360,5.4,10.0,68,0.00,,,0.00,Rainwise IP-100,2013-09-28 13:54:00,
2013-09-28 09:59:00,65.0,54.0,30.37,North,360,5.8,10.0,67,0.00,,,0.00,Rainwise IP-100,2013-09-28 13:59:00,
2013-09-28 10:05:00,65.2,54.0,30.37,North,360,6.3,9.0,67,0.00,,,0.00,Rainwise IP-100,2013-09-28 14:05:00,
2013-09-28 10:10:00,65.4,54.0,30.38,NNE,22,5.1,11.0,67,0.00,,,0.00,Rainwise IP-100,2013-09-28 14:10:00,
2013-09-28 10:15:00,66.0,54.0,30.38,NNE,22,7.0,11.0,66,0.00,,,0.00,Rainwise IP-100,2013-09-28 14:15:00,
2013-09-28 10:20:00,66.6,54.0,30.38,North,360,6.1,11.0,65,0.00,,,0.00,Rainwise IP-100,2013-09-28 14:20:00,
2013-09-28 10:25:00,66.8,54.0,30.38,North,360,4.0,7.0,65,0.00,,,0.00,Rainwise IP-100,2013-09-28 14:25:00,
2013-09-28 10:30:00,67.4,55.0,30.38,WNW,292,2.3,8.0,65,0.00,,,0.00,Rainwise IP-100,2013-09-28 14:30:00,
2013-09-28 10:35:00,67.7,55.0,30.38,NNE,22,4.2,6.0,64,0.00,,,0.00,Rainwise IP-100,2013-09-28 14:35:00,
2013-09-28 10:41:00,67.8,54.0,30.38,NNW,337,2.3,9.0,63,0.00,,,0.00,Rainwise IP-100,2013-09-28 14:41:00,
2013-09-28 10:46:00,67.9,54.0,30.37,NW,315,5.6,9.0,63,0.00,,,0.00,Rainwise IP-100,2013-09-28 14:46:00,
2013-09-28 10:51:00,67.9,54.0,30.38,NNE,22,4.2,7.0,63,0.00,,,0.00,Rainwise IP-100,2013-09-28 14:51:00,
2013-09-28 10:56:00,68.3,54.0,30.37,NNW,337,2.1,6.0,62,0.00,,,0.00,Rainwise IP-100,2013-09-28 14:56:00,
2013-09-28 11:01:00,68.4,54.0,30.37,NNW,337,4.7,9.0,62,0.00,,,0.00,Rainwise IP-100,2013-09-28 15:01:00,
2013-09-28 11:06:00,68.4,54.0,30.37,ENE,67,5.8,8.0,62,0.00,,,0.00,Rainwise IP-100,2013-09-28 15:06:00,
2013-09-28 11:11:00,68.3,54.0,30.37,East,90,3.0,6.0,62,0.00,,,0.00,Rainwise IP-100,2013-09-28 15:11:00,
2013-09-28 11:16:00,68.3,54.0,30.37,ENE,67,5.1,9.0,61,0.00,,,0.00,Rainwise IP-100,2013-09-28 15:16:00,
2013-09-28 11:22:00,68.2,53.0,30.37,ENE,67,5.4,8.0,59,0.00,,,0.00,Rainwise IP-100,2013-09-28 15:22:00,
2013-09-28 11:27:00,67.6,53.0,30.37,SE,135,9.3,9.3,59,0.00,,,0.00,Rainwise IP-100,2013-09-28 15:27:00,
2013-09-28 11:32:00,66.6,54.0,30.37,SSE,157,7.9,9.0,65,0.00,,,0.00,Rainwise IP-100,2013-09-28 15:32:00,
2013-09-28 11:37:00,65.8,54.0,30.37,SSE,157,7.9,10.0,69,0.00,,,0.00,Rainwise IP-100,2013-09-28 15:37:00,
2013-09-28 11:42:00,65.7,55.0,30.37,SSE,157,7.9,9.0,70,0.00,,,0.00,Rainwise IP-100,2013-09-28 15:42:00,
2013-09-28 11:47:00,65.7,56.0,30.37,SSE,157,8.2,9.0,71,0.00,,,0.00,Rainwise IP-100,2013-09-28 15:47:00,
2013-09-28 11:53:00,65.8,56.0,30.36,SSE,157,9.1,10.0,71,0.00,,,0.00,Rainwise IP-100,2013-09-28 15:53:00,
2013-09-28 11:58:00,65.6,56.0,30.36,SE,135,9.3,10.0,72,0.00,,,0.00,Rainwise IP-100,2013-09-28 15:58:00,
2013-09-28 12:03:00,65.3,56.0,30.37,SSE,157,7.2,11.0,73,0.00,,,0.00,Rainwise IP-100,2013-09-28 16:03:00,
2013-09-28 12:08:00,65.3,56.0,30.37,SE,135,9.6,11.0,73,0.00,,,0.00,Rainwise IP-100,2013-09-28 16:08:00,
2013-09-28 12:13:00,65.4,56.0,30.37,SSE,157,9.8,11.0,73,0.00,,,0.00,Rainwise IP-100,2013-09-28 16:13:00,
2013-09-28 12:18:00,65.8,56.0,30.37,SE,135,9.6,10.0,73,0.00,,,0.00,Rainwise IP-100,2013-09-28 16:18:00,
2013-09-28 12:23:00,66.2,57.0,30.37,SE,135,9.3,10.0,73,0.00,,,0.00,Rainwise IP-100,2013-09-28 16:23:00,
2013-09-28 12:29:00,66.3,57.0,30.36,SSE,157,7.0,11.0,72,0.00,,,0.00,Rainwise IP-100,2013-09-28 16:29:00,
2013-09-28 12:34:00,66.2,56.0,30.37,ESE,112,9.3,11.0,71,0.00,,,0.00,Rainwise IP-100,2013-09-28 16:34:00,
2013-09-28 12:39:00,66.2,56.0,30.36,SE,135,6.8,11.0,71,0.00,,,0.00,Rainwise IP-100,2013-09-28 16:39:00,
2013-09-28 12:44:00,66.2,56.0,30.36,SSE,157,8.2,11.0,71,0.00,,,0.00,Rainwise IP-100,2013-09-28 16:44:00,
2013-09-28 12:49:00,66.2,57.0,30.36,SE,135,8.9,12.0,72,0.00,,,0.00,Rainwise IP-100,2013-09-28 16:49:00,
2013-09-28 12:54:00,66.1,57.0,30.36,ESE,112,11.9,12.0,73,0.00,,,0.00,Rainwise IP-100,2013-09-28 16:54:00,
2013-09-28 12:59:00,66.0,57.0,30.36,ESE,112,11.0,12.0,73,0.00,,,0.00,Rainwise IP-100,2013-09-28 16:59:00,
2013-09-28 13:04:00,66.0,57.0,30.36,ESE,112,10.0,12.0,73,0.00,,,0.00,Rainwise IP-100,2013-09-28 17:04:00,
2013-09-28 13:10:00,66.2,56.0,30.35,ESE,112,11.4,12.0,71,0.00,,,0.00,Rainwise IP-100,2013-09-28 17:10:00,
2013-09-28 13:15:00,66.2,56.0,30.35,ESE,112,10.7,12.0,70,0.00,,,0.00,Rainwise IP-100,2013-09-28 17:15:00,
2013-09-28 13:20:00,66.2,56.0,30.35,ESE,112,9.1,11.0,71,0.00,,,0.00,Rainwise IP-100,2013-09-28 17:20:00,
2013-09-28 13:24:00,66.3,56.0,30.35,SE,135,7.2,11.0,71,0.00,,,0.00,Rainwise IP-100,2013-09-28 17:24:00,
2013-09-28 13:29:00,66.2,56.0,30.34,SE,135,10.5,11.0,71,0.00,,,0.00,Rainwise IP-100,2013-09-28 17:29:00,
2013-09-28 13:34:00,66.2,56.0,30.34,ESE,112,10.5,11.0,71,0.00,,,0.00,Rainwise IP-100,2013-09-28 17:34:00,
2013-09-28 13:39:00,66.3,56.0,30.34,ESE,112,8.6,11.0,70,0.00,,,0.00,Rainwise IP-100,2013-09-28 17:39:00,
2013-09-28 13:44:00,66.4,56.0,30.34,ESE,112,10.7,11.0,70,0.00,,,0.00,Rainwise IP-100,2013-09-28 17:44:00,
2013-09-28 13:49:00,66.3,56.0,30.34,ESE,112,10.7,11.0,70,0.00,,,0.00,Rainwise IP-100,2013-09-28 17:49:00,
2013-09-28 13:54:00,66.1,56.0,30.34,ESE,112,10.0,12.0,71,0.00,,,0.00,Rainwise IP-100,2013-09-28 17:54:00,
2013-09-28 13:59:00,66.1,56.0,30.34,ESE,112,10.0,11.0,72,0.00,,,0.00,Rainwise IP-100,2013-09-28 17:59:00,
2013-09-28 14:05:00,66.3,57.0,30.34,ESE,112,11.0,12.0,73,0.00,,,0.00,Rainwise IP-100,2013-09-28 18:05:00,
2013-09-28 14:10:00,66.2,57.0,30.34,ESE,112,9.3,11.0,73,0.00,,,0.00,Rainwise IP-100,2013-09-28 18:10:00,
2013-09-28 14:15:00,66.0,57.0,30.33,ESE,112,9.6,11.0,73,0.00,,,0.00,Rainwise IP-100,2013-09-28 18:15:00,
2013-09-28 14:20:00,66.2,57.0,30.33,SSE,157,9.1,11.0,72,0.00,,,0.00,Rainwise IP-100,2013-09-28 18:20:00,
2013-09-28 14:25:00,66.4,56.0,30.33,ESE,112,11.0,11.0,71,0.00,,,0.00,Rainwise IP-100,2013-09-28 18:25:00,
2013-09-28 14:30:00,66.4,56.0,30.33,ESE,112,9.6,11.0,71,0.00,,,0.00,Rainwise IP-100,2013-09-28 18:30:00,
2013-09-28 14:35:00,66.4,56.0,30.33,ESE,112,8.2,12.0,70,0.00,,,0.00,Rainwise IP-100,2013-09-28 18:35:00,
2013-09-28 14:41:00,66.6,56.0,30.33,ESE,112,10.0,11.0,69,0.00,,,0.00,Rainwise IP-100,2013-09-28 18:41:00,
2013-09-28 14:46:00,66.8,56.0,30.33,SE,135,8.6,11.0,69,0.00,,,0.00,Rainwise IP-100,2013-09-28 18:46:00,
2013-09-28 14:51:00,66.9,56.0,30.33,SE,135,8.9,10.0,69,0.00,,,0.00,Rainwise IP-100,2013-09-28 18:51:00,
2013-09-28 14:56:00,67.0,56.0,30.33,ESE,112,11.2,11.2,68,0.00,,,0.00,Rainwise IP-100,2013-09-28 18:56:00,
2013-09-28 15:01:00,66.9,56.0,30.33,ESE,112,9.8,12.0,67,0.00,,,0.00,Rainwise IP-100,2013-09-28 19:01:00,
2013-09-28 15:06:00,66.9,55.0,30.33,ESE,112,9.3,13.0,65,0.00,,,0.00,Rainwise IP-100,2013-09-28 19:06:00,
2013-09-28 15:11:00,67.1,55.0,30.32,ESE,112,11.0,11.0,66,0.00,,,0.00,Rainwise IP-100,2013-09-28 19:11:00,
2013-09-28 15:16:00,67.2,55.0,30.33,ESE,112,8.4,11.0,66,0.00,,,0.00,Rainwise IP-100,2013-09-28 19:16:00,
2013-09-28 15:22:00,67.1,55.0,30.33,ESE,112,8.9,11.0,65,0.00,,,0.00,Rainwise IP-100,2013-09-28 19:22:00,
2013-09-28 15:27:00,67.2,55.0,30.32,ESE,112,9.1,11.0,66,0.00,,,0.00,Rainwise IP-100,2013-09-28 19:27:00,
2013-09-28 15:32:00,67.3,55.0,30.32,ESE,112,7.2,11.0,65,0.00,,,0.00,Rainwise IP-100,2013-09-28 19:32:00,
2013-09-28 15:37:00,67.3,54.0,30.32,ESE,112,8.6,11.0,64,0.00,,,0.00,Rainwise IP-100,2013-09-28 19:37:00,
2013-09-28 15:42:00,67.2,54.0,30.32,ESE,112,8.2,12.0,64,0.00,,,0.00,Rainwise IP-100,2013-09-28 19:42:00,
2013-09-28 15:47:00,67.3,55.0,30.32,ESE,112,9.8,11.0,65,0.00,,,0.00,Rainwise IP-100,2013-09-28 19:47:00,
2013-09-28 15:52:00,67.5,56.0,30.32,ESE,112,7.7,10.0,66,0.00,,,0.00,Rainwise IP-100,2013-09-28 19:52:00,
2013-09-28 15:57:00,67.5,55.0,30.32,ESE,112,6.8,11.0,65,0.00,,,0.00,Rainwise IP-100,2013-09-28 19:57:00,
2013-09-28 16:03:00,67.6,55.0,30.32,ESE,112,6.1,8.0,65,0.00,,,0.00,Rainwise IP-100,2013-09-28 20:03:00,
2013-09-28 16:08:00,67.6,55.0,30.32,ESE,112,7.5,8.0,64,0.00,,,0.00,Rainwise IP-100,2013-09-28 20:08:00,
2013-09-28 16:13:00,67.6,54.0,30.32,ESE,112,7.5,10.0,63,0.00,,,0.00,Rainwise IP-100,2013-09-28 20:13:00,
2013-09-28 16:18:00,67.7,54.0,30.32,ESE,112,7.2,7.2,63,0.00,,,0.00,Rainwise IP-100,2013-09-28 20:18:00,
2013-09-28 16:23:00,67.8,54.0,30.32,ESE,112,6.8,8.0,63,0.00,,,0.00,Rainwise IP-100,2013-09-28 20:23:00,
2013-09-28 16:28:00,67.9,54.0,30.31,ESE,112,9.1,9.1,63,0.00,,,0.00,Rainwise IP-100,2013-09-28 20:28:00,
2013-09-28 16:33:00,67.8,54.0,30.31,ESE,112,5.4,9.0,62,0.00,,,0.00,Rainwise IP-100,2013-09-28 20:33:00,
2013-09-28 16:38:00,67.8,54.0,30.31,ESE,112,8.2,9.0,62,0.00,,,0.00,Rainwise IP-100,2013-09-28 20:38:00,
2013-09-28 16:44:00,68.0,54.0,30.32,ESE,112,9.3,9.3,62,0.00,,,0.00,Rainwise IP-100,2013-09-28 20:44:00,
2013-09-28 16:49:00,68.1,54.0,30.31,ESE,112,6.8,10.0,61,0.00,,,0.00,Rainwise IP-100,2013-09-28 20:49:00,
2013-09-28 16:54:00,68.2,54.0,30.31,ENE,67,5.8,9.0,61,0.00,,,0.00,Rainwise IP-100,2013-09-28 20:54:00,
2013-09-28 16:59:00,68.5,53.0,30.31,ESE,112,7.5,10.0,59,0.00,,,0.00,Rainwise IP-100,2013-09-28 20:59:00,
2013-09-28 17:04:00,68.6,53.0,30.31,ESE,112,6.8,8.0,58,0.00,,,0.00,Rainwise IP-100,2013-09-28 21:04:00,
2013-09-28 17:09:00,68.6,53.0,30.31,East,90,3.3,8.0,58,0.00,,,0.00,Rainwise IP-100,2013-09-28 21:09:00,
2013-09-28 17:14:00,68.6,53.0,30.31,ESE,112,9.1,9.1,59,0.00,,,0.00,Rainwise IP-100,2013-09-28 21:14:00,
2013-09-28 17:20:00,68.5,53.0,30.32,East,90,7.7,10.0,59,0.00,,,0.00,Rainwise IP-100,2013-09-28 21:20:00,
2013-09-28 17:25:00,68.5,53.0,30.31,ESE,112,8.6,8.6,59,0.00,,,0.00,Rainwise IP-100,2013-09-28 21:25:00,
2013-09-28 17:30:00,68.5,53.0,30.31,ESE,112,4.4,9.0,59,0.00,,,0.00,Rainwise IP-100,2013-09-28 21:30:00,
2013-09-28 17:35:00,68.5,54.0,30.31,ESE,112,4.7,6.0,60,0.00,,,0.00,Rainwise IP-100,2013-09-28 21:35:00,
2013-09-28 17:40:00,68.6,54.0,30.31,East,90,3.5,9.0,60,0.00,,,0.00,Rainwise IP-100,2013-09-28 21:40:00,
2013-09-28 17:45:00,68.6,54.0,30.31,ENE,67,2.3,6.0,60,0.00,,,0.00,Rainwise IP-100,2013-09-28 21:45:00,
2013-09-28 17:50:00,68.7,54.0,30.31,ESE,112,2.8,6.0,61,0.00,,,0.00,Rainwise IP-100,2013-09-28 21:50:00,
2013-09-28 17:55:00,68.8,54.0,30.31,ENE,67,2.3,5.0,61,0.00,,,0.00,Rainwise IP-100,2013-09-28 21:55:00,
2013-09-28 18:01:00,68.8,54.0,30.31,ESE,112,3.0,5.0,61,0.00,,,0.00,Rainwise IP-100,2013-09-28 22:01:00,
2013-09-28 18:06:00,68.9,54.0,30.31,East,90,1.6,6.0,61,0.00,,,0.00,Rainwise IP-100,2013-09-28 22:06:00,
2013-09-28 18:11:00,68.9,55.0,30.31,ESE,112,4.9,5.0,62,0.00,,,0.00,Rainwise IP-100,2013-09-28 22:11:00,
2013-09-28 18:16:00,68.8,54.0,30.31,ENE,67,3.0,5.0,62,0.00,,,0.00,Rainwise IP-100,2013-09-28 22:16:00,
2013-09-28 18:21:00,68.6,54.0,30.31,East,90,4.9,6.0,62,0.00,,,0.00,Rainwise IP-100,2013-09-28 22:21:00,
2013-09-28 18:26:00,68.5,54.0,30.31,East,90,3.0,5.0,62,0.00,,,0.00,Rainwise IP-100,2013-09-28 22:26:00,
2013-09-28 18:31:00,68.5,55.0,30.31,ENE,67,1.4,3.0,63,0.00,,,0.00,Rainwise IP-100,2013-09-28 22:31:00,
2013-09-28 18:37:00,68.2,55.0,30.31,ENE,67,1.6,3.0,64,0.00,,,0.00,Rainwise IP-100,2013-09-28 22:37:00,
2013-09-28 18:42:00,67.9,56.0,30.31,East,90,0.0,4.0,65,0.00,,,0.00,Rainwise IP-100,2013-09-28 22:42:00,
2013-09-28 18:47:00,67.6,56.0,30.31,East,90,1.4,1.4,67,0.00,,,0.00,Rainwise IP-100,2013-09-28 22:47:00,
2013-09-28 18:52:00,67.1,56.0,30.31,ENE,67,0.0,2.0,69,0.00,,,0.00,Rainwise IP-100,2013-09-28 22:52:00,
2013-09-28 18:57:00,66.4,56.0,30.31,ENE,67,0.0,2.0,71,0.00,,,0.00,Rainwise IP-100,2013-09-28 22:57:00,
2013-09-28 19:02:00,65.6,56.0,30.31,NE,45,0.0,0.0,73,0.00,,,0.00,Rainwise IP-100,2013-09-28 23:02:00,
2013-09-28 19:07:00,64.9,57.0,30.31,NNE,22,0.0,0.0,75,0.00,,,0.00,Rainwise IP-100,2013-09-28 23:07:00,
2013-09-28 19:12:00,64.4,56.0,30.31,NNE,22,1.4,1.4,76,0.00,,,0.00,Rainwise IP-100,2013-09-28 23:12:00,
2013-09-28 19:18:00,64.1,56.0,30.31,North,360,1.4,1.4,76,0.00,,,0.00,Rainwise IP-100,2013-09-28 23:18:00,
2013-09-28 19:23:00,63.9,56.0,30.31,NNW,337,3.5,3.5,77,0.00,,,0.00,Rainwise IP-100,2013-09-28 23:23:00,
2013-09-28 19:28:00,63.6,57.0,30.31,NNW,337,3.0,3.0,79,0.00,,,0.00,Rainwise IP-100,2013-09-28 23:28:00,
2013-09-28 19:33:00,63.2,56.0,30.31,NNW,337,3.5,3.5,79,0.00,,,0.00,Rainwise IP-100,2013-09-28 23:33:00,
2013-09-28 19:38:00,63.1,56.0,30.31,NNW,337,2.6,3.0,80,0.00,,,0.00,Rainwise IP-100,2013-09-28 23:38:00,
2013-09-28 19:43:00,63.1,56.0,30.31,NNW,337,3.5,3.5,80,0.00,,,0.00,Rainwise IP-100,2013-09-28 23:43:00,
2013-09-28 19:48:00,63.0,56.0,30.31,NNW,337,3.7,3.7,80,0.00,,,0.00,Rainwise IP-100,2013-09-28 23:48:00,
2013-09-28 19:54:00,62.7,56.0,30.31,NNW,337,4.0,4.0,80,0.00,,,0.00,Rainwise IP-100,2013-09-28 23:54:00,
2013-09-28 19:59:00,62.6,56.0,30.31,NNW,337,3.5,4.0,80,0.00,,,0.00,Rainwise IP-100,2013-09-28 23:59:00,
2013-09-28 20:04:00,62.3,56.0,30.31,NNW,337,3.5,4.0,80,0.00,,,0.00,Rainwise IP-100,2013-09-29 00:04:00,
2013-09-28 20:09:00,62.1,56.0,30.31,NNW,337,3.7,4.0,80,0.00,,,0.00,Rainwise IP-100,2013-09-29 00:09:00,
2013-09-28 20:14:00,61.8,56.0,30.31,NNW,337,4.7,4.7,81,0.00,,,0.00,Rainwise IP-100,2013-09-29 00:14:00,
2013-09-28 20:19:00,61.6,56.0,30.32,NNW,337,3.0,4.0,81,0.00,,,0.00,Rainwise IP-100,2013-09-29 00:19:00,
2013-09-28 20:24:00,61.3,55.0,30.31,NNW,337,4.0,4.0,82,0.00,,,0.00,Rainwise IP-100,2013-09-29 00:24:00,
2013-09-28 20:29:00,60.9,55.0,30.31,NNW,337,4.0,4.0,82,0.00,,,0.00,Rainwise IP-100,2013-09-29 00:29:00,
2013-09-28 20:35:00,60.8,55.0,30.31,NNW,337,2.8,5.0,83,0.00,,,0.00,Rainwise IP-100,2013-09-29 00:35:00,
2013-09-28 20:40:00,60.7,55.0,30.31,NNW,337,2.8,3.0,83,0.00,,,0.00,Rainwise IP-100,2013-09-29 00:40:00,
2013-09-28 20:45:00,60.5,55.0,30.31,NNW,337,3.0,3.0,83,0.00,,,0.00,Rainwise IP-100,2013-09-29 00:45:00,
2013-09-28 20:50:00,60.3,54.0,30.31,NNW,337,3.5,3.5,83,0.00,,,0.00,Rainwise IP-100,2013-09-29 00:50:00,
2013-09-28 20:55:00,60.2,54.0,30.31,NNW,337,4.0,4.0,83,0.00,,,0.00,Rainwise IP-100,2013-09-29 00:55:00,
2013-09-28 21:00:00,60.0,54.0,30.32,NNW,337,3.5,5.0,83,0.00,,,0.00,Rainwise IP-100,2013-09-29 01:00:00,
2013-09-28 21:05:00,59.6,54.0,30.32,NNW,337,4.4,5.0,84,0.00,,,0.00,Rainwise IP-100,2013-09-29 01:05:00,
2013-09-28 21:11:00,59.4,54.0,30.32,NNW,337,4.4,5.0,85,0.00,,,0.00,Rainwise IP-100,2013-09-29 01:11:00,
2013-09-28 21:16:00,59.3,54.0,30.32,NNW,337,4.7,5.0,86,0.00,,,0.00,Rainwise IP-100,2013-09-29 01:16:00,
2013-09-28 21:20:00,59.2,54.0,30.32,NNW,337,3.7,4.0,86,0.00,,,0.00,Rainwise IP-100,2013-09-29 01:20:00,
2013-09-28 21:25:00,59.3,55.0,30.32,NW,315,4.0,4.0,87,0.00,,,0.00,Rainwise IP-100,2013-09-29 01:25:00,
2013-09-28 21:30:00,59.2,55.0,30.32,NW,315,4.4,4.4,87,0.00,,,0.00,Rainwise IP-100,2013-09-29 01:30:00,
2013-09-28 21:35:00,59.0,55.0,30.32,NW,315,3.5,4.0,87,0.00,,,0.00,Rainwise IP-100,2013-09-29 01:35:00,
2013-09-28 21:40:00,58.7,55.0,30.32,NNW,337,3.7,4.0,88,0.00,,,0.00,Rainwise IP-100,2013-09-29 01:40:00,
2013-09-28 21:46:00,58.5,55.0,30.32,NNW,337,4.2,5.0,88,0.00,,,0.00,Rainwise IP-100,2013-09-29 01:46:00,
2013-09-28 21:51:00,58.3,54.0,30.32,NNW,337,3.0,5.0,88,0.00,,,0.00,Rainwise IP-100,2013-09-29 01:51:00,
2013-09-28 21:55:00,58.2,55.0,30.32,NNW,337,2.3,4.0,89,0.00,,,0.00,Rainwise IP-100,2013-09-29 01:55:00,
2013-09-28 22:00:00,58.1,55.0,30.32,NNW,337,3.0,4.0,89,0.00,,,0.00,Rainwise IP-100,2013-09-29 02:00:00,
2013-09-28 22:05:00,58.0,55.0,30.32,NNW,337,3.3,4.0,89,0.00,,,0.00,Rainwise IP-100,2013-09-29 02:05:00,
2013-09-28 22:10:00,58.0,55.0,30.32,NNW,337,3.5,4.0,90,0.00,,,0.00,Rainwise IP-100,2013-09-29 02:10:00,
2013-09-28 22:15:00,57.9,55.0,30.32,NNW,337,3.3,4.0,90,0.00,,,0.00,Rainwise IP-100,2013-09-29 02:15:00,
2013-09-28 22:21:00,57.9,55.0,30.32,NNW,337,3.5,4.0,90,0.00,,,0.00,Rainwise IP-100,2013-09-29 02:21:00,
2013-09-28 22:26:00,57.8,54.0,30.32,NNW,337,3.7,4.0,90,0.00,,,0.00,Rainwise IP-100,2013-09-29 02:26:00,
2013-09-28 22:31:00,57.7,54.0,30.32,NNW,337,3.3,4.0,90,0.00,,,0.00,Rainwise IP-100,2013-09-29 02:31:00,
2013-09-28 22:36:00,57.6,54.0,30.32,NNW,337,3.5,4.0,90,0.00,,,0.00,Rainwise IP-100,2013-09-29 02:36:00,
2013-09-28 22:41:00,57.4,55.0,30.32,NNW,337,3.3,4.0,91,0.00,,,0.00,Rainwise IP-100,2013-09-29 02:41:00,
2013-09-28 22:46:00,57.3,54.0,30.32,NNW,337,4.2,4.2,91,0.00,,,0.00,Rainwise IP-100,2013-09-29 02:46:00,
2013-09-28 22:51:00,57.4,55.0,30.32,NW,315,3.0,4.0,91,0.00,,,0.00,Rainwise IP-100,2013-09-29 02:51:00,
2013-09-28 22:57:00,57.4,55.0,30.32,NNW,337,3.7,4.0,91,0.00,,,0.00,Rainwise IP-100,2013-09-29 02:57:00,
2013-09-28 23:02:00,57.4,55.0,30.32,NNW,337,3.3,4.0,91,0.00,,,0.00,Rainwise IP-100,2013-09-29 03:02:00,
2013-09-28 23:07:00,57.3,54.0,30.32,NNW,337,3.5,5.0,91,0.00,,,0.00,Rainwise IP-100,2013-09-29 03:07:00,
2013-09-28 23:12:00,57.2,54.0,30.32,NNW,337,3.3,4.0,91,0.00,,,0.00,Rainwise IP-100,2013-09-29 03:12:00,
2013-09-28 23:17:00,57.1,54.0,30.31,NNW,337,3.7,4.0,91,0.00,,,0.00,Rainwise IP-100,2013-09-29 03:17:00,
2013-09-28 23:22:00,57.0,54.0,30.31,NNW,337,3.0,4.0,92,0.00,,,0.00,Rainwise IP-100,2013-09-29 03:22:00,
2013-09-28 23:27:00,56.8,54.0,30.31,NNW,337,3.3,4.0,92,0.00,,,0.00,Rainwise IP-100,2013-09-29 03:27:00,
2013-09-28 23:32:00,56.8,54.0,30.31,NNW,337,3.3,4.0,92,0.00,,,0.00,Rainwise IP-100,2013-09-29 03:32:00,
2013-09-28 23:38:00,56.7,54.0,30.31,NNW,337,3.5,4.0,92,0.00,,,0.00,Rainwise IP-100,2013-09-29 03:38:00,
2013-09-28 23:43:00,56.5,54.0,30.31,NNW,337,4.0,4.0,92,0.00,,,0.00,Rainwise IP-100,2013-09-29 03:43:00,
2013-09-28 23:48:00,56.4,54.0,30.31,NNW,337,3.7,4.0,92,0.00,,,0.00,Rainwise IP-100,2013-09-29 03:48:00,
2013-09-28 23:53:00,56.3,54.0,30.31,NNW,337,2.8,4.0,93,0.00,,,0.00,Rainwise IP-100,2013-09-29 03:53:00,
2013-09-28 23:58:00,56.2,54.0,30.31,NNW,337,4.4,4.4,93,0.00,,,0.00,Rainwise IP-100,2013-09-29 03:58:00,